This is the latest recevied weather packets stored in our database for station/object WB8ZGM-13. If no packets are shown the sender has not sent any weather packets the latest 1 day(s).
| Time | Temp. | Humidity | Pressure | Rain* | Wind** | Luminosity | Snow |
|---|---|---|---|---|---|---|---|
| 1778032132 | 21.67° C | 69% | 990.6 hPa | 0 mm | 3.13 m/s, 101° | - | - |
| 1778031232 | 21.67° C | 69% | 990.9 hPa | 0 mm | 2.68 m/s, 213° | - | - |
| 1778030302 | 21.67° C | 68% | 990.8 hPa | 0 mm | 1.34 m/s, 31° | - | - |
| 1778029372 | 21.67° C | 67% | 990.7 hPa | 0 mm | 2.24 m/s, 205° | - | - |
| 1778028442 | 21.67° C | 67% | 990.6 hPa | 0 mm | 2.68 m/s, 138° | - | - |
| 1778027512 | 22.22° C | 66% | 990.5 hPa | 0 mm | 2.24 m/s, 143° | - | - |
| 1778026582 | 22.22° C | 66% | 990.3 hPa | 0 mm | 3.13 m/s, 184° | - | - |
| 1778025682 | 22.22° C | 65% | 990.3 hPa | 0 mm | 2.68 m/s, 196° | - | - |
| 1778024782 | 22.22° C | 64% | 990.6 hPa | 0 mm | 3.13 m/s, 134° | - | - |
| 1778023882 | 22.22° C | 63% | 990.6 hPa | 0 mm | 1.34 m/s, 186° | - | - |
| 1778022982 | 22.78° C | 61% | 991 hPa | 0 mm | 0.89 m/s, 177° | - | - |
| 1778022082 | 22.78° C | 61% | 991.2 hPa | 0 mm | 2.68 m/s, 47° | - | - |
| 1778021182 | 22.22° C | 62% | 991.4 hPa | 0 mm | 2.24 m/s, 135° | - | - |
| 1778020252 | 21.67° C | 64% | 991 hPa | 0 mm | 0.89 m/s, 166° | - | - |
| 1778019322 | 21.67° C | 62% | 992.2 hPa | 0 mm | 2.68 m/s, 124° | - | - |
| 1778018392 | 22.78° C | 57% | 992.6 hPa | 0 mm | 0.45 m/s, 230° | - | - |
| 1778017462 | 23.89° C | 55% | 992 hPa | 0 mm | 0.89 m/s, 229° | - | - |
| 1778016532 | 23.33° C | 53% | 991.8 hPa | 0 mm | 2.24 m/s, 207° | - | - |
| 1778015632 | 23.89° C | 54% | 991.4 hPa | 0 mm | 3.13 m/s, 202° | - | - |
| 1778014731 | 23.89° C | 54% | 991.6 hPa | 0 mm | 0.45 m/s, 264° | - | - |
| 1778013831 | 24.44° C | 52% | 991.6 hPa | 0 mm | 4.47 m/s, 222° | - | - |
| 1778012901 | 25° C | 51% | 991.7 hPa | 0 mm | 2.68 m/s, 196° | - | - |
| 1778012001 | 26.11° C | 51% | 991.5 hPa | 0 mm | 1.34 m/s, 239° | - | - |
| 1778011101 | 25.56° C | 49% | 991.8 hPa | 0 mm | 3.13 m/s, 342° | - | - |
| 1778010171 | 25.56° C | 54% | 992.2 hPa | 0 mm | 2.68 m/s, 239° | - | - |
* Rain latest hour (hover to see other rain measurements)
** Current wind speed in m/s (hover to see current wind gust speed)